Location: ??????
(30.5519°N, 47.7720°E)
Time: 23:30:28
(UTC+00:00)

Okean-O - Visible Passes

Search period start: 07 May 2021 00:00
Search period end: 17 May 2021 00:00
Orbit: 639 x 640 km, 98.2° (Epoch: 07 May)

Date Brightness Start Highest point End Pass type
(mag) Time Alt. Az. Time Alt. Az. Time Alt. Az.
07 May 3.5 16:13:10 10° S 16:17:27 51° W 16:21:46 10° NNW visible
08 May 4.7 16:37:06 10° SSW 16:40:49 26° W 16:44:33 10° NW visible
09 May 5.4 17:01:55 10° SW 17:04:15 14° W 17:06:35 10° WNW visible
11 May 3.3 16:09:52 10° S 16:14:13 57° W 16:18:34 10° NNW visible
12 May 4.5 16:33:43 10° SSW 16:37:33 29° W 16:41:26 10° NW visible
13 May 5.4 16:58:20 10° SW 17:00:59 16° W 17:03:38 10° WNW visible
15 May 3.1 16:06:36 10° S 16:10:58 64° WSW 16:15:22 10° NNW visible
16 May 4.4 16:30:21 10° SSW 16:34:18 32° W 16:38:17 10° NW visible
